Location: Estes Par
(40.3770°N, 105.5210°W)
Time: 12:30:17
(UTC-06:00)

Envisat - Pass Details

Date: 11 October 2017
Orbit: 764 x 766 km, 98.2° (Epoch: 19 October)

Event Time Altitude Azimuth Distance (km) Brightness Sun altitude
Exits shadow 20:10:56 36° 62° (ENE) 1,194 3.6 -20.4°
Drops below altitude 10° 20:15:17 10° 4° (N) 2,305 5.5 -21.3°
Sets 20:17:44 0° 356° (N) 3,235 6.4 -21.7°
